"Pseudo-MPEC" for P10Lbzj

Created 2019 Jan 12 21:18:19 UT using Find_Orb

Click here for an explanation of pseudo-MPECs

 
 Astrometry: 
     P10Lbzj  C2019 01 08gGeYi(F*W$yl6UA\7Xt'.:unjn_Astrometry-*DVLEB_5J+s\crF51
     P10Lbzj  C2019 01 08'VyjJt^:hx!MvXSuT80$C):aUB`\EvT',TqV(/KKaLx]^+Y8CCq@F51
     P10Lbzj  C2019 01 08sSMZJ[+d;+5Xg:prMc;p45Qy=ha_a;#hO'J[-hv9#RKjlub?8WjLF51
     P10Lbzj |C2019 01 09J(YmX`qmH_i;bAfredacted;,h;naT%QZqM`5\(7a0qTBWK5%0Xt807
     P10Lbzj |C2019 01 09)d+5DVb_kxg)9QTmNer=E\v?.*Z@L6F/+xxb`]-9$6RVD*0LGU/w807
     P10Lbzj |C2019 01 09D^=xD;w,V4mI9^Uo(/S8\mkxBbYvgu9*s]yJC/_62RNhGWwTo3.=807
     P10Lbzj ^C2019 01 09.22673704 24 39.340-15 58 30.50   ~197I 22.01GVNEOCP568
     P10Lbzj ^C2019 01 09.22768804 24 39.374-15 58 27.75   ~197I 22.32GVNEOCP568
     P10Lbzj ^C2019 01 09.22864004 24 39.407-15 58 25.04   ~197I 22.08GVNEOCP568
     P10Lbzj KC2019 01 09A-047*KjTHTm_fE3TFD,:?/1xop?5+:BO3$clickTIXHbDmOS:N9291
     P10Lbzj KC2019 01 09sIOb.D+JsJMvYP.'l-Nv`BJS78e:kvgn%PI5'vS+$*dT8E!Etw_p291
     P10Lbzj KC2019 01 09^TCRYs.]b5Ypu7_F8_G83DQ)kjk^HmBjN[\rL,vGCv`iiy6[242Y291
     P10Lbzj  C2019 01 09x3J4CPheretsQp7a9kRt#f`sF=ZcAh#HAj]:,ZD'Tuy$g`=Xlk[YT12
     P10Lbzj  C2019 01 0962y8SD068K]w%Xv)y7FW)kmBu7EL'W%sdI)UbEEC_WshW0hhnY5dT12
     P10Lbzj |C2019 01 10MHkF3;OB#uHr-YEOjV=Y$Pnh+`(RQn%y:LfU!.2P0hHqGnFl$=%\807
     P10Lbzj |C2019 01 10+U0o\for^J8G6hW$k)9OrqGwSnJW!8d,V@qN5-g:E4*4E/%NirXa807
     P10Lbzj |C2019 01 10S)518`_MnLA9:L'`5`h$X?GYWCa?wjtoY+-@D4hqV'e\/KqI:O(n807
     P10Lbzj KC2019 01 12D$Ys8#2:MJ(8`kdWnX`vLTTY-C$ev^;'2(O]dACU+U#=oDJZx)AB291
     P10Lbzj KC2019 01 128bAnt#w1g/vJyA3Se]3A.:(:8@^,X'Lu*I`qhoGl3F3!S^gKYve6291
     P10Lbzj KC2019 01 12Dg$N7?yY4FKG8#GE;4pOd5kUmM*0h3U0l]!1]Zyexplanation]+291

Station data:
(291) LPL/Spacewatch II  (N31.961669 W111.599905)  US/Arizona.  Observers J.
   V. Scotti, R. S. McMillan. 1.8-m f/2.7 reflector + CCD.
(568) Mauna Kea  (N19.826116 W155.472200)  US/Hawaii.
(807) Cerro Tololo Observatory, La Serena  (S30.169136 W70.805900)  Chile.
   1.5-m Ritchey-Chrétien.
(F51) Pan-STARRS 1, Haleakala  (N20.707235 W156.255910)  US/Hawaii.
   Observers N. Primak, A. Schultz, S. Watters, J. Thiel, T. Goggia. Measurer
   PS1 Science Consortium. 1.8-m Ritchey-Chrétien + CCD.
(T12) Mauna Kea-UH/Tholen NEO Follow-Up (2.24-m)  (N19.822991 W155.469434)
   US/Hawaii.  Observers D. Fohring, D. Hung, Y. Ramanjooloo, Z. Claytor, D.
   J. Tholen. 2.24-m University of Hawaii reflector.

Orbital elements:  P10Lbzj
   Perihelion 2018 Nov 4.549610 +/- 0.532 TT = 13:11:26 (JD 2458427.049610)
Epoch 2019 Jan 12.0 TT = JDT 2458495.5   Earth MOID: 0.6353   AutoNEOCP
M  15.64041953 +/- 0.57             (J2000 ecliptic)
n   0.22849277 +/- 0.0069           Peri.  274.17408 +/- 0.57
a   2.64984864 +/- 0.0533           Node   127.39259 +/- 0.23
e   0.4851214 +/- 0.0085            Incl.   27.33468 +/- 0.19
P   4.31                   H 21.2   G  0.15   U  9.4  
q 1.36435015 +/- 0.00518    Q 3.93534712 +/- 0.104
From 20 observations 2019 Jan. 8-12; mean residual 0".21
Residuals in arcseconds: 
190108 F51  .23+  .14+    190109 568  .03-  .09-    190110 807  .07+  .07+    
190108 F51  .15+  .20-    190109 568  .03-  .14-    190110 807  .23+  .12-    
190108 F51  .13+  .09-    190109 291  .03-  .11+    190110 807  .01-  .13-    
190109 807  .06+  .11-    190109 291  .66+  .79+    190112 291  .25-  .32-    
190109 807  .06+  .03-    190109 291  .01+  .28+    190112 291  .19+  .01+    
190109 807  .01-  .04-    190109 T12  .09-  .06-    190112 291  .17+  .30+    
190109 568  .05-  .08-    190109 T12  .04+  .04+    

Ephemerides (geocentric):
Date (UTC) HH   RA              Dec         delta   r     elong  mag " sig PA
---- -- -- --  -------------   -----------  ------ ------ -----  --- ---- ---
2019 01 12 21  04 27 12.363   -13 02 49.56  .76121 1.5315 122.2 22.9 .286  87
2019 01 12 22  04 27 14.257   -13 00 50.37  .76148 1.5317 122.2 22.9 .300  87
2019 01 12 23  04 27 16.154   -12 58 51.20  .76175 1.5319 122.2 22.9 .313  88
2019 01 13 00  04 27 18.053   -12 56 52.07  .76201 1.5321 122.2 22.9 .328  88
2019 01 13 01  04 27 19.956   -12 54 52.96  .76228 1.5322 122.2 22.9 .342  88
2019 01 13 02  04 27 21.863   -12 52 53.88  .76255 1.5324 122.2 22.9 .357  88
2019 01 13 03  04 27 23.772   -12 50 54.83  .76281 1.5326 122.2 22.9 .371  89
2019 01 13 04  04 27 25.684   -12 48 55.82  .76308 1.5328 122.2 22.9 .386  89
2019 01 13 05  04 27 27.600   -12 46 56.83  .76335 1.5330 122.2 22.9 .402  89
2019 01 13 06  04 27 29.519   -12 44 57.87  .76362 1.5332 122.2 22.9 .417  89
2019 01 13 07  04 27 31.440   -12 42 58.95  .76389 1.5333 122.2 22.9 .433  90
2019 01 13 08  04 27 33.365   -12 41 00.05  .76416 1.5335 122.2 22.9 .449  90
2019 01 13 09  04 27 35.293   -12 39 01.19  .76443 1.5337 122.2 22.9 .465  90
2019 01 13 10  04 27 37.225   -12 37 02.35  .76470 1.5339 122.2 22.9 .482  90
2019 01 13 11  04 27 39.159   -12 35 03.55  .76497 1.5341 122.2 22.9 .498  90
2019 01 13 12  04 27 41.096   -12 33 04.78  .76524 1.5343 122.2 22.9 .515  90
2019 01 13 13  04 27 43.037   -12 31 06.03  .76551 1.5344 122.1 22.9 .533  91
2019 01 13 14  04 27 44.981   -12 29 07.32  .76578 1.5346 122.1 22.9 .550  91
2019 01 13 15  04 27 46.927   -12 27 08.65  .76605 1.5348 122.1 22.9 .568  91
2019 01 13 16  04 27 48.877   -12 25 10.00  .76632 1.5350 122.1 22.9 .586  91
2019 01 13 17  04 27 50.830   -12 23 11.38  .76660 1.5352 122.1 22.9 .604  91
2019 01 13 18  04 27 52.786   -12 21 12.80  .76687 1.5354 122.1 22.9 .622  91
2019 01 13 19  04 27 54.746   -12 19 14.25  .76714 1.5355 122.1 22.9 .640  91
2019 01 13 20  04 27 56.708   -12 17 15.73  .76742 1.5357 122.1 22.9 .659  91
2019 01 13 21  04 27 58.673   -12 15 17.24  .76769 1.5359 122.1 22.9 .678  91
2019 01 13 22  04 28 00.642   -12 13 18.79  .76796 1.5361 122.1 22.9 .698  92
2019 01 13 23  04 28 02.614   -12 11 20.37  .76824 1.5363 122.1 22.9 .717  92
2019 01 14 00  04 28 04.588   -12 09 21.98  .76851 1.5365 122.1 22.9 .737  92
2019 01 14 01  04 28 06.566   -12 07 23.62  .76879 1.5366 122.1 22.9 .757  92
2019 01 14 02  04 28 08.547   -12 05 25.30  .76907 1.5368 122.1 22.9 .777  92
2019 01 14 03  04 28 10.531   -12 03 27.01  .76934 1.5370 122.1 22.9 .797  92
2019 01 14 04  04 28 12.518   -12 01 28.75  .76962 1.5372 122.0 22.9 .818  92
2019 01 14 05  04 28 14.508   -11 59 30.52  .76990 1.5374 122.0 22.9 .839  92
2019 01 14 06  04 28 16.502   -11 57 32.33  .77017 1.5376 122.0 22.9 .860  92
2019 01 14 07  04 28 18.498   -11 55 34.18  .77045 1.5378 122.0 22.9 .881  92
2019 01 14 08  04 28 20.498   -11 53 36.05  .77073 1.5379 122.0 22.9 .903  92
2019 01 14 09  04 28 22.500   -11 51 37.96  .77101 1.5381 122.0 22.9 .925  92
2019 01 14 10  04 28 24.506   -11 49 39.91  .77129 1.5383 122.0 22.9 .947  92
2019 01 14 11  04 28 26.514   -11 47 41.88  .77156 1.5385 122.0 22.9 .969  92
2019 01 14 12  04 28 28.526   -11 45 43.90  .77184 1.5387 122.0 22.9 0.99  92
2019 01 14 13  04 28 30.541   -11 43 45.94  .77212 1.5389 122.0 22.9 1.01  93
2019 01 14 14  04 28 32.559   -11 41 48.02  .77240 1.5390 122.0 22.9 1.04  93
2019 01 14 15  04 28 34.580   -11 39 50.14  .77269 1.5392 122.0 22.9 1.06  93
2019 01 14 16  04 28 36.604   -11 37 52.29  .77297 1.5394 122.0 23.0 1.08  93
2019 01 14 17  04 28 38.631   -11 35 54.47  .77325 1.5396 122.0 23.0 1.11  93
2019 01 14 18  04 28 40.662   -11 33 56.69  .77353 1.5398 121.9 23.0 1.13  93
2019 01 14 19  04 28 42.695   -11 31 58.95  .77381 1.5400 121.9 23.0 1.15  93
2019 01 14 20  04 28 44.731   -11 30 01.24  .77409 1.5402 121.9 23.0 1.18  93